STARLINK-2036, 47652

Orbit data source: Space-Track

STARLINK-2036, 47652 is a payload satellite owned by SpaceX/Seattle (US) in LEO that was launched on Tue, 16 Feb 2021 UTC via an FALCON 9 launch vehicle from the Air Force Eastern Test Range (AFETR). Payload-class satellites include a variety of spacecraft equipped with specific instruments for various scientific and technological missions. These include communications satellites like Starlink; space stations such as the ISS; scientific satellites like the Hubble; Earth observation satellites from companies like Planet Labs, Umbra, and HawkEye 360; GPS; miniature CubeSats for education and research; and military/defense satellites.

Loading next visibility...
Identifier
47652, 2021-012AJ
Orbit
LEO
Country
Flag of USUS
Related business
Manufacturer
SpaceX/Seattle
Mission
Operational Commercial Communications
Bus & Motor
STARLINK, Unknown motor
Mass
260 kg wet, ~248 kg dry
Launch date (UTC)
2021-02-16 (5 years ago)
Launch vehicle
FALCON 9
Launch site
Air Force Eastern Test Range (AFETR)
Object type
Payload
Rocket body
Debris
Shape & HBR
Box + 1 Pan, 10.1 m
Radar Cross Section
13.562 m², Large (>1 m²)

Expand to show TLE details & history
Last TLE update: 9 hours ago

TLE from 9 hours ago
0 STARLINK-2036
1 47652U 21012AJ  25343.51783035  .00007221  00000-0  50297-3 0  9997
2 47652  53.0539 116.4082 0001263  82.8979 277.2153 15.06412351266399
Epoch: 2025-12-09T12:25Z
TLE epoch observation values (Epoch: 2025-12-09T12:25:40.542Z)
Latitude
-0.00006°
Longitude
-148.51213°
Altitude
547.943 km
Speed
7.589 km/s
True Right ascension
07h 45m 37s
True Declination
0° 00' 00"
Sunlit
Object was in full shadow at epoch
Visualization orbit readout
Latitude
Unknown
Longitude
Unknown
Altitude
Unknown
Speed
Unknown
Apparent Right ascension
Unknown
Apparent Declination
Unknown
Sunlit
N/A
Visualization observer readout
Local Sidereal Time
19:55:27
Azimuth
Unknown
Elevation
Unknown
Doppler factor
Unknown
Orbital elements
Apogee altitude
548.319 km
Perigee altitude
546.57 km
Semi-major axis
6,925.582 km
Eccentricity
0.00013
Inclination
53.0539°
RAAN
116.4082°
Arg. of periapsis
82.8979°
True anomaly
277.20094°
Mean anomaly
277.2153°
Eccentric anomaly
277.20812°
Mean motion
3.76581 °/min
Orbital period
95.6 mins
BSTAR
0.00050297
Loading maneuver chart data...
Computing Atmospheric mass density...
Loading historical data...
Loading historical data...
Loading historical data...
Loading historical data...
Loading historical data...
Loading historical data...
Loading historical data...

Documentation

Showing up to 5 results
|